Printer-friendly version
Follow the MPC on Twitter Follow the MPC on Facebook The MPC blog
Minor Planet Center

MPEC 2010-G80 : 2010 GF25

The following Minor Planet Electronic Circular may be linked-to from your own Web pages, but must not otherwise be redistributed electronically.

A form allowing access to any MPEC is at the bottom of this page.


Read MPEC 2010-G79 Read MPEC 2010-G81


M.P.E.C. 2010-G80                                Issued 2010 Apr. 10, 22:17 UT

     The Minor Planet Electronic Circulars contain information on unusual
         minor planets and routine data on comets.  They are published
   on behalf of Commission 20 of the International Astronomical Union by the
          Minor Planet Center, Smithsonian Astrophysical Observatory,
                          Cambridge, MA 02138, U.S.A.

             Prepared using the Tamkin Foundation Computer Network

                              MPC@CFA.HARVARD.EDU
       URL http://www.minorplanetcenter.org/iau/mpc.html  ISSN 1523-6714

                                   2010 GF25

Observations:
     K10G25F* S2010 04 02.13610 06 55 24.99 -16 58 08.2          21   R EG080C51
     K10G25F  s2010 04 02.13610 1 - 1128.7109 + 6544.8056 - 1919.9830   EG080C51
     K10G25F  S2010 04 02.26840 06 54 55.71 -16 57 34.5                 EG080C51
     K10G25F  s2010 04 02.26840 1 - 1144.3029 + 6539.5652 - 1928.6293   EG080C51
     K10G25F  S2010 04 02.33462 06 54 41.13 -16 57 17.9                 EG080C51
     K10G25F  s2010 04 02.33462 1 - 1148.4061 + 6549.3240 - 1892.9188   EG080C51
     K10G25F  S2010 04 02.40071 06 54 26.53 -16 57 00.5                 EG080C51
     K10G25F  s2010 04 02.40071 1 - 1159.8899 + 6534.6609 - 1936.9292   EG080C51
     K10G25F  S2010 04 02.46692 06 54 11.98 -16 56 43.5                 EG080C51
     K10G25F  s2010 04 02.46692 1 - 1163.9698 + 6544.1863 - 1902.0182   EG080C51
     K10G25F  S2010 04 02.59923 06 53 42.94 -16 56 09.7                 EG080C51
     K10G25F  s2010 04 02.59923 1 - 1179.6995 + 6538.2111 - 1912.4991   EG080C51
     K10G25F HC2010 04 09.13401 06 31 35.24 -16 25 48.9                 EG080291
     K10G25F HC2010 04 09.13794 06 31 34.45 -16 25 47.4                 EG080291
     K10G25F HC2010 04 09.14198 06 31 33.62 -16 25 47.3                 EG080291
     K10G25F  C2010 04 10.10586 06 28 33.58 -16 21 00.8          20.6 R EG080H01
     K10G25F  C2010 04 10.11436 06 28 31.96 -16 20 58.1          20.8 R EG080H01
     K10G25F  C2010 04 10.11878 06 28 31.13 -16 20 56.8          20.7 R EG080H01
     K10G25F  C2010 04 10.12737 06 28 29.51 -16 20 54.1          20.8 R EG080H01
     K10G25F HC2010 04 10.13462 06 28 28.17 -16 20 52.1                 EG080291
     K10G25F HC2010 04 10.14253 06 28 26.68 -16 20 49.1                 EG080291

Observer details:
291 LPL/Spacewatch II.  Observer T. H. Bressi.  1.8-m f/2.7 reflector + CCD.
H01 Magdalena Ridge Observatory, Socorro.  Observers W. H. Ryan, E. V. Ryan.
    Measurer W. H. Ryan.  2.4-m f/8.9 reflector + CCD.
C51 WISE.  Measurers A. Mainzer, E. Wright, J. Bauer, T. Grav, J. Dailey, J.
    Masiero, R. Cutri, R. McMillan, R. Walker.
    (http://wise.ssl.berkeley.edu/mission_sci.html)

Orbital elements:
2010 GF25
Epoch 2010 Mar. 25.0 TT = JDT 2455280.5                 MPC
M 317.50939              (2000.0)            P               Q
n   0.59807265     Peri.  339.52765     +0.58387371     +0.72494432
a   1.3951902      Node   323.18266     -0.63384786     +0.12579927
e   0.7302083      Incl.   37.57610     -0.50727544     +0.67722247
P   1.65           H   19.7           G   0.15
From 15 observations 2010 Apr. 2-10.

Ephemeris:
2010 GF25                a,e,i = 1.40, 0.73, 38                  q = 0.3764
Date    TT    R. A. (2000) Decl.     Delta      r     Elong.  Phase     V
2010 04 04    06 48.69   -16 50.0    0.595    1.172    90.9    58.6    21.0
2010 04 09    06 32.02   -16 26.3    0.610    1.109    83.1    63.7    21.1
2010 04 14    06 16.96   -16 01.1    0.625    1.043    75.8    68.7    21.2
2010 04 19    06 02.91   -15 34.4    0.638    0.975    68.8    73.7    21.2
2010 04 24    05 49.20   -15 04.3    0.648    0.905    62.0    78.8    21.3
2010 04 29    05 35.11   -14 26.7    0.655    0.832    55.3    84.4    21.3
2010 05 04    05 19.90   -13 34.2    0.660    0.756    48.6    90.5    21.4
2010 05 09    05 02.88   -12 15.1    0.664    0.679    41.8    97.5    21.5

Carl W. Hergenrother         (C) Copyright 2010 MPC           M.P.E.C. 2010-G80

Read MPEC 2010-G79 Read MPEC 2010-G81


MPEC number:

Enter an MPEC number in one of the following forms:

  • 1997-B01 (the full form)
  • J97B01 (the packed version of the full form)
  • B01 (the abbreviated form)

Valid HTML 4.01!